Tiempo cada hora Muna

Hoy, 29 Octubre, Jueves

Tiempo Temperatura Precipitaciones Viento Presión Humedad
00:00 +25°C° 0.1 mm 1 mps 755 mmHg 97%
01:00 +23°C° 0.1 mm 0 mps 755 mmHg 97%
02:00 +23°C° 0.1 mm 0 mps 755 mmHg 98%
03:00 +23°C° 0.1 mm 0 mps 755 mmHg 98%
04:00 +23°C° 0 mm 0 mps 755 mmHg 98%
05:00 +22°C° 0 mm 0 mps 755 mmHg 98%
06:00 +22°C° 0 mm 0 mps 755 mmHg 98%
07:00 +26°C° 0.2 mm 1 mps 756 mmHg 94%
08:00 +28°C° 0.2 mm 1 mps 756 mmHg 89%
09:00 +29°C° 0.2 mm 1 mps 757 mmHg 85%
10:00 +31°C° 1 mm 1 mps 756 mmHg 79%
11:00 +32°C° 1 mm 1 mps 756 mmHg 73%
12:00 +31°C° 1 mm 0 mps 755 mmHg 67%
13:00 +33°C° 0.6 mm 1 mps 755 mmHg 67%
14:00 +32°C° 0.6 mm 2 mps 754 mmHg 67%
15:00 +33°C° 0.6 mm 3 mps 754 mmHg 67%
16:00 +30°C° 0.3 mm 2 mps 754 mmHg 74%
17:00 +28°C° 0.3 mm 2 mps 755 mmHg 81%
18:00 +26°C° 0.3 mm 2 mps 755 mmHg 88%
19:00 +26°C° 0 mm 2 mps 756 mmHg 89%
20:00 +26°C° 0 mm 2 mps 757 mmHg 91%
21:00 +26°C° 0 mm 2 mps 757 mmHg 92%
22:00 +25°C° 0.1 mm 2 mps 757 mmHg 93%
23:00 +25°C° 0.1 mm 1 mps 757 mmHg 95%

Mañana, 30 Octubre, Viernes

Tiempo Temperatura Precipitaciones Viento Presión Humedad
00:00 +25°C° 0.1 mm 1 mps 757 mmHg 96%
01:00 +25°C° 0 mm 1 mps 757 mmHg 96%
02:00 +25°C° 0 mm 2 mps 757 mmHg 97%
03:00 +25°C° 0 mm 2 mps 756 mmHg 97%
04:00 +25°C° 0 mm 2 mps 757 mmHg 96%
05:00 +25°C° 0 mm 2 mps 757 mmHg 95%
06:00 +25°C° 0 mm 2 mps 757 mmHg 94%
07:00 +25°C° 0 mm 2 mps 758 mmHg 91%
08:00 +26°C° 0 mm 2 mps 758 mmHg 87%
09:00 +27°C° 0 mm 2 mps 759 mmHg 84%
10:00 +27°C° 0.5 mm 3 mps 758 mmHg 84%
11:00 +28°C° 0.5 mm 3 mps 758 mmHg 83%
12:00 +28°C° 0.5 mm 3 mps 758 mmHg 83%
13:00 +28°C° 0.2 mm 3 mps 757 mmHg 80%
14:00 +28°C° 0.2 mm 3 mps 757 mmHg 78%
15:00 +28°C° 0.2 mm 3 mps 757 mmHg 75%
16:00 +27°C° 0 mm 3 mps 757 mmHg 78%
17:00 +26°C° 0 mm 3 mps 757 mmHg 81%
18:00 +25°C° 0 mm 2 mps 758 mmHg 84%
19:00 +25°C° 0 mm 2 mps 758 mmHg 86%
20:00 +24°C° 0 mm 1 mps 759 mmHg 88%
21:00 +24°C° 0 mm 1 mps 759 mmHg 90%
22:00 +23°C° 0 mm 1 mps 759 mmHg 91%
23:00 +23°C° 0 mm 1 mps 759 mmHg 93%

Pasado mañana, 31 Octubre, Sábado

Tiempo Temperatura Precipitaciones Viento Presión Humedad
00:00 +23°C° 0 mm 1 mps 759 mmHg 94%
01:00 +23°C° 0 mm 1 mps 759 mmHg 94%
02:00 +22°C° 0 mm 1 mps 759 mmHg 94%
03:00 +22°C° 0 mm 1 mps 758 mmHg 94%
04:00 +22°C° 0 mm 1 mps 758 mmHg 94%
05:00 +22°C° 0 mm 1 mps 759 mmHg 94%
06:00 +20°C° 0 mm 0 mps 759 mmHg 93%
07:00 +25°C° 0 mm 1 mps 759 mmHg 85%
08:00 +27°C° 0 mm 1 mps 759 mmHg 77%
09:00 +29°C° 0 mm 2 mps 760 mmHg 69%
10:00 +29°C° 0 mm 2 mps 759 mmHg 66%
11:00 +30°C° 0 mm 2 mps 759 mmHg 63%
12:00 +31°C° 0 mm 2 mps 758 mmHg 61%
13:00 +30°C° 0.2 mm 2 mps 758 mmHg 65%
14:00 +30°C° 0.2 mm 2 mps 757 mmHg 70%
15:00 +29°C° 0.2 mm 3 mps 757 mmHg 75%
16:00 +28°C° 0.4 mm 2 mps 757 mmHg 82%
17:00 +26°C° 0.4 mm 2 mps 758 mmHg 88%
18:00 +25°C° 0.4 mm 2 mps 758 mmHg 95%
19:00 +25°C° 0 mm 1 mps 759 mmHg 96%
20:00 +24°C° 0 mm 1 mps 759 mmHg 96%
21:00 +24°C° 0 mm 1 mps 759 mmHg 97%
22:00 +24°C° 0 mm 1 mps 759 mmHg 97%
23:00 +24°C° 0 mm 1 mps 759 mmHg 97%

1 Noviembre, Domingo

Tiempo Temperatura Precipitaciones Viento Presión Humedad
00:00 +24°C° 0 mm 1 mps 759 mmHg 98%
01:00 +24°C° 0 mm 1 mps 759 mmHg 98%
02:00 +24°C° 0 mm 1 mps 758 mmHg 98%
03:00 +24°C° 0 mm 1 mps 758 mmHg 98%
04:00 +24°C° 0 mm 1 mps 758 mmHg 97%
05:00 +24°C° 0 mm 1 mps 759 mmHg 97%
06:00 +24°C° 0 mm 2 mps 759 mmHg 97%
07:00 +26°C° 0 mm 2 mps 759 mmHg 91%
08:00 +27°C° 0 mm 2 mps 760 mmHg 85%
09:00 +28°C° 0 mm 2 mps 760 mmHg 79%
10:00 +29°C° 0.1 mm 3 mps 759 mmHg 74%
11:00 +30°C° 0.1 mm 3 mps 759 mmHg 69%
12:00 +31°C° 0.1 mm 3 mps 759 mmHg 64%
13:00 +31°C° 0.3 mm 3 mps 758 mmHg 67%
14:00 +30°C° 0.3 mm 3 mps 758 mmHg 71%
15:00 +30°C° 0.3 mm 4 mps 757 mmHg 74%
16:00 +28°C° 0.1 mm 3 mps 758 mmHg 78%
17:00 +27°C° 0.1 mm 3 mps 758 mmHg 82%
18:00 +26°C° 0.1 mm 2 mps 759 mmHg 86%
19:00 +25°C° 0 mm 2 mps 759 mmHg 88%
20:00 +25°C° 0 mm 2 mps 759 mmHg 89%
21:00 +24°C° 0 mm 2 mps 760 mmHg 90%
22:00 +25°C° 0.1 mm 2 mps 760 mmHg 91%
23:00 +25°C° 0.1 mm 1 mps 760 mmHg 92%

2 Noviembre, Lunes

Tiempo Temperatura Precipitaciones Viento Presión Humedad
00:00 +25°C° 0.1 mm 1 mps 759 mmHg 93%
01:00 +25°C° 0.5 mm 1 mps 759 mmHg 94%
02:00 +24°C° 0.5 mm 2 mps 759 mmHg 96%
03:00 +24°C° 0.5 mm 2 mps 759 mmHg 98%
04:00 +24°C° 0 mm 2 mps 759 mmHg 98%
05:00 +24°C° 0 mm 2 mps 759 mmHg 98%
06:00 +24°C° 0 mm 2 mps 759 mmHg 98%
07:00 +25°C° 0.2 mm 2 mps 759 mmHg 94%
08:00 +26°C° 0.2 mm 3 mps 759 mmHg 91%
09:00 +28°C° 0.2 mm 4 mps 760 mmHg 87%
10:00 +28°C° 1.2 mm 4 mps 759 mmHg 89%
11:00 +28°C° 1.2 mm 4 mps 759 mmHg 90%
12:00 +28°C° 1.2 mm 4 mps 758 mmHg 92%
13:00 +28°C° 1.5 mm 3 mps 758 mmHg 92%
14:00 +27°C° 1.5 mm 3 mps 757 mmHg 93%
15:00 +27°C° 1.5 mm 3 mps 757 mmHg 93%
16:00 +26°C° 0.5 mm 3 mps 757 mmHg 94%
17:00 +26°C° 0.5 mm 3 mps 758 mmHg 95%
18:00 +25°C° 0.5 mm 2 mps 758 mmHg 96%
19:00 +25°C° 0.1 mm 2 mps 758 mmHg 96%
20:00 +24°C° 0.1 mm 2 mps 759 mmHg 97%
21:00 +24°C° 0.1 mm 2 mps 759 mmHg 97%
22:00 +24°C° 0.3 mm 2 mps 759 mmHg 97%
23:00 +24°C° 0.3 mm 2 mps 759 mmHg 97%

3 Noviembre, Martes

Tiempo Temperatura Precipitaciones Viento Presión Humedad
00:00 +24°C° 0.3 mm 2 mps 759 mmHg 98%
01:00 +24°C° 0.1 mm 2 mps 759 mmHg 97%
02:00 +24°C° 0.1 mm 2 mps 758 mmHg 97%
03:00 +24°C° 0.1 mm 2 mps 758 mmHg 97%
04:00 +23°C° 0 mm 2 mps 758 mmHg 96%
05:00 +23°C° 0 mm 2 mps 759 mmHg 96%
06:00 +21°C° 0 mm 2 mps 759 mmHg 95%
07:00 +24°C° 0 mm 2 mps 759 mmHg 88%
08:00 +26°C° 0 mm 3 mps 760 mmHg 81%
09:00 +28°C° 0 mm 3 mps 760 mmHg 73%
10:00 +28°C° 0.5 mm 3 mps 759 mmHg 76%
11:00 +28°C° 0.5 mm 3 mps 759 mmHg 79%
12:00 +28°C° 0.5 mm 3 mps 759 mmHg 82%
13:00 +28°C° 1.4 mm 3 mps 758 mmHg 84%
14:00 +27°C° 1.4 mm 3 mps 758 mmHg 87%
15:00 +26°C° 1.4 mm 4 mps 758 mmHg 90%
16:00 +25°C° 0.2 mm 3 mps 758 mmHg 90%
17:00 +25°C° 0.2 mm 3 mps 758 mmHg 90%
18:00 +24°C° 0.2 mm 2 mps 759 mmHg 90%
19:00 +23°C° 0 mm 2 mps 759 mmHg 91%
20:00 +23°C° 0 mm 2 mps 759 mmHg 92%
21:00 +21°C° 0 mm 2 mps 760 mmHg 93%
22:00 +22°C° 0 mm 1 mps 760 mmHg 94%
23:00 +22°C° 0 mm 1 mps 759 mmHg 95%
Mostrar más

Necesitamos Su Consentimiento

Meteoprog y nuestros Proveedores de Servicios pueden almacenar y acceder a sus datos personales como cookies, identificadores de dispositivo u otras tecnologías similares de su dispositivo y procesar dichos datos para personalizar contenido y anuncios, además de ofrecer funciones de redes sociales y analizar el tráfico.

  • Almacenar y/o acceder a información en su dispositivo

    Se puede almacenar o acceder a cookies, identificadores de dispositivo u otra información de su dispositivo para los fines anteriormente indicados.

  • Anuncios y contenido personalizados, medición de anuncios y contenido, percepciones del público, y desarrollo de productos

    Los anuncios y el contenido pueden personalizarse en base a su perfil. Se pueden añadir más datos para personalizar mejor los anuncios y contenidos. Se puede medir el rendimiento de los anuncios y contenidos. Se puede obtener la percepción sobre el público que ha visto los anuncios y contenidos. Dichos datos pueden usarse para desarrollar o mejorar la experiencia del usuario, sistemas y software.

Al hacer clic en ‘Estoy De Acuerdo’ usted permitirá el uso de las cookies, identificadores de dispositivo, balizas web u otras tecnologías similares indicadas. Su configuración puede cambiarse desde el navegador de su dispositivo.

Para ciertos fines, los intereses legítimos pueden ser considerados por encima del consentimiento. Puede leer más sobre ello en nuestra Política de Privacidad y Cookies.